Location: Newark
(35.6799°N, 139.7636°E)
Time: 08:23:10
(UTC+00:00)

Transit 2A - Pass Details

Date: 11 December 2019
Orbit: 601 x 957 km, 66.7° (Epoch: 20 January)

Event Time Altitude Azimuth Distance (km) Brightness Sun altitude
Rises 06:38:14 0° 333° (NNW) 2,886 8.9 7.7°
Reaches altitude 10° 06:40:26 10° 334° (NNW) 2,002 8.1 7.3°
Maximum altitude 06:44:55 84° 61° (ENE) 664 5.8 6.6°
Drops below altitude 10° 06:49:48 10° 152° (SSE) 2,159 8.5 5.8°
Sets 06:52:14 0° 153° (SSE) 3,131 9.3 5.4°
